Miscellaneous Local Product
Issued by NWS North Platte, NE

Home | Current Version | Previous Version | Text Only | Print | Product List | Glossary On
Versions: 1 2 3 4 5 6 7 8 9 10 11 12 13 14 15 16 17 18 19 20 21 22 23 24 25 26 27 28 29 30 31 32 33 34 35 36 37 38 39 40 41 42 43 44 45 46 47 48 49 50
276
AXUS43 KLBF 250810
MISLBF


WESTERN AND NORTH CENTRAL NEBRASKA HOURLY WEATHER ROUNDUP
NATIONAL WEATHER SERVICE NORTH PLATTE NE
300 AM CDT MON SEP 25 2017

NOTE: "FAIR" INDICATES FEW OR NO CLOUDS BELOW 12,000 FEET WITH NO
SIGNIFICANT WEATHER AND/OR OBSTRUCTIONS TO VISIBILITY.

NOTE: STATIONS NOT REPORTING VARIABLES SUCH AS SKY/WEATHER OR
PRESSURE ARE PROVIDED BY RAWS AND APRS NETWORKS AND ARE NOT UNDER
NATIONAL WEATHER SERVICE QUALITY CONTROL.

...OBSERVATIONS IN AND NEAR THE EASTERN PANHANDLE OF NEBRASKA...

CITY           SKY/WX    TMP DP  RH WIND       PRES   REMARKS
PINE RIDGE     LGT RAIN  46  45  96 N7        30.12R
GORDON         CLOUDY    45  43  93 NE6       30.08F
CHADRON        RAIN      45  42  89 N6        30.15R FOG
ALLIANCE       CLOUDY    44  42  93 N12       30.11R
SIDNEY         CLOUDY    46  45  96 N13       30.10R FOG
CRESCENT LAKE    N/A     44  44 100 NE8         N/A
$$

...OBSERVATIONS IN NORTHERN NEBRASKA AND FAR SOUTHERN SOUTH DAKOTA...

CITY           SKY/WX    TMP DP  RH WIND       PRES   REMARKS
WINNER         CLOUDY    51  48  89 N9        30.08F
VALENTINE      CLOUDY    49  46  90 NE15      30.07S
THEDFORD       RAIN      49  47  96 NE9       30.07R
AINSWORTH      LGT RAIN  48  48  98 NE10      30.05F
O`NEILL        RAIN      51  51 100 NE10      30.05F
ORD            LGT RAIN  52  49  89 NE6G20    30.00R
BROKEN BOW     HVY RAIN  51  51 100 NE13      29.99S
HALSEY           N/A     48  48 100 N6G17       N/A
BUTTE            N/A     49  47  95 N8          N/A
CHAMBERS         N/A     50  49  97 N5          N/A
EWING            N/A     51  50  96 N3          N/A
$$

...OBSERVATIONS IN SOUTHWEST NEBRASKA AND FAR NORTHEAST COLORADO...

CITY           SKY/WX    TMP DP  RH WIND       PRES   REMARKS
WRAY           CLOUDY   N/A N/A N/A N7        30.04S
HOLYOKE        DRIZZLE   52  48  87 N12       30.06S
IMPERIAL       LGT RAIN  50  48  93 N7        30.02S
OGALLALA       CLOUDY    50  48  95 N8        30.05R
NORTH PLATTE   HVY RAIN  50  49  96 NW13      30.06R FOG
MCCOOK         CLOUDY    53  52  96 NW12      30.01R
LEXINGTON      RAIN      53  50  90 E17       29.98F
STAPLETON        N/A     47  46  97 NE3G12      N/A
GOTHENBURG       N/A     50  47  90 NE8         N/A
CALLAWAY         N/A     51  50  97 NE10        N/A
$$

...OBSERVATIONS IN CENTRAL LINCOLN COUNTY AREA...

CITY           SKY/WX    TMP DP  RH WIND       PRES   REMARKS
N.P. AIRPORT   HVY RAIN  50  49  96 NW13      30.06R FOG
N.P. DOWNTOWN    N/A     49  48  96 NW3         N/A
N.P. SOUTHEAST   N/A     49  47  95 N3          N/A
N.P. HILLCREST   N/A     49  48  97 NW12        N/A
$$

...SOME OBSERVATIONS FROM AROUND THE REGION...

CITY           SKY/WX    TMP DP  RH WIND       PRES   REMARKS
DENVER         DRIZZLE   45  43  93 N10       30.08R FOG
LIMON            N/A    N/A N/A N/A MISG        N/A
ASPEN          CLOUDY    31  22  69 S6        30.12S WCI  25
LARAMIE        CLOUDY    31  31 100 CALM      30.10R
CASPER         CLOUDY    34  33  96 NE6       30.10S WCI  29
CHEYENNE       CLOUDY    40  37  89 N8        30.10R WCI  34
SCOTTSBLUFF    CLOUDY    46  43  89 N6        30.12S
GRAND ISLAND   RAIN      54  54 100 N8        30.00F FOG
OMAHA          LGT RAIN  64  61  90 N7        29.90F
SIOUX FALLS    LGT RAIN  54  54 100 N6        30.01S
PIERRE         CLOUDY    49  46  90 N7        30.09F
BISMARCK       CLOUDY    48  46  93 NW6       30.12S
KANSAS CITY    PTCLDY    69  65  86 S8        29.93S
HILL CITY      LGT RAIN  58  58 100 NW6       29.94R FOG
WICHITA        CLOUDY    72  66  81 SE9       29.89S
DODGE CITY     TSTM      68  65  90 SE15      29.91R FOG
OKLAHOMA CITY  MOCLDY    72  63  73 S8        29.90F
DALLAS         MOCLDY    77  68  73 SE8       29.87F
AMARILLO       CLOUDY    67  66  97 S12       29.93R
$$




USA.gov is the U.S. government's official web portal to all federal, state and local government web resources and services.